Orbital Elements at Epoch 2459200.5 (2020-Dec-17.0) TDB
Reference: JPL 7 (heliocentric ecliptic J2000)
Element | Value | Uncertainty (1-sigma) | Units |
e | .2142909027116303 | 0.00021093 | |
a | .8849155855318036 | 9.2497e-05 | au |
q | .6952862258846025 | 0.00025932 | au |
i | .5848622978842581 | 0.00074456 | deg |
node | 46.70943908283937 | 0.0096005 | deg |
peri | 275.9965402523903 | 0.01965 | deg |
M | 101.8669023235043 | 0.26255 | deg |
tp | 2459114.463686731344 (2020-Sep-21.96368673) | 0.20826 | TDB |
period | 304.0543304080565 0.83 | 0.047672 0.0001305 | d yr |
n | 1.18399892386621 | 0.00018564 | deg/d |
Q | 1.074544945179005 | 0.00011232 | au |
|
| | Orbit Determination Parameters
Additional Information
|